| time (UTC) | temp F | wind direction | speed MPH | gust MPH | rain 1hr in | rain 24hr in | rain mn in | humidity % | barometer mb |
| 20260904140048 | 0 | 0.0 | 0.0 | 0.00 | 0.01 | 0.00 | 1014.4 | ||
| 20260904134537 | 0 | 0.0 | 0.0 | 0.00 | 0.01 | 0.00 | 1014.4 | ||
| 20260904133033 | 0 | 0.0 | 0.0 | 0.00 | 0.01 | 0.00 | 1014.3 | ||
| 20260904131543 | 0 | 0.0 | 0.0 | 0.00 | 0.01 | 0.00 | 1014.2 | ||
| 20260904130048 | 0 | 0.0 | 0.0 | 0.00 | 0.01 | 0.00 | 1014.2 | ||
| 20260904124536 | 0 | 0.0 | 0.0 | 0.00 | 0.01 | 0.00 | 1014.1 | ||
| 20260904123034 | 0 | 0.0 | 0.0 | 0.00 | 0.01 | 0.00 | 1013.7 | ||
| 20260904121535 | 0 | 0.0 | 0.0 | 0.00 | 0.01 | 0.00 | 1013.5 | ||
| 20260904120036 | 0 | 0.0 | 0.0 | 0.00 | 0.01 | 0.00 | 1013.4 | ||
| 20260904114533 | 0 | 0.0 | 0.0 | 0.00 | 0.01 | 0.00 | 1013.4 | ||
| 20260904113036 | 0 | 0.0 | 0.0 | 0.00 | 0.01 | 0.00 | 1013.4 | ||
| 20260904111540 | 0 | 0.0 | 0.0 | 0.00 | 0.01 | 0.00 | 1013.5 | ||
| 20260904110039 | 0 | 0.0 | 0.0 | 0.00 | 0.01 | 0.00 | 1013.5 | ||
| 20260904104536 | 0 | 0.0 | 0.0 | 0.00 | 0.01 | 0.00 | 1013.4 | ||
| 20260904103036 | 0 | 0.0 | 0.0 | 0.00 | 0.01 | 0.00 | 1013.3 | ||
| 20260904101535 | 0 | 0.0 | 0.0 | 0.00 | 0.01 | 0.00 | 1013.2 | ||
| 20260904100033 | 0 | 0.0 | 0.0 | 0.00 | 0.01 | 0.00 | 1013.1 | ||
| 20260904094535 | 0 | 0.0 | 0.0 | 0.00 | 0.01 | 0.00 | 1013.0 | ||
| 20260904093037 | 0 | 0.0 | 0.0 | 0.00 | 0.01 | 0.00 | 1012.8 | ||
| 20260904091536 | 0 | 0.0 | 0.0 | 0.00 | 0.01 | 0.00 | 1012.8 | ||
| 20260904090039 | 0 | 0.0 | 0.0 | 0.00 | 0.01 | 0.00 | 1012.8 | ||
| 20260904084537 | 0 | 0.0 | 0.0 | 0.00 | 0.01 | 0.00 | 1012.8 | ||
| 20260904083037 | 0 | 0.0 | 0.0 | 0.00 | 0.01 | 0.00 | 1012.8 | ||
| 20260904081534 | 0 | 0.0 | 0.0 | 0.00 | 0.01 | 0.00 | 1012.8 | ||
| 20260904080035 | 0 | 0.0 | 0.0 | 0.00 | 0.01 | 0.00 | 1012.9 | ||
| 20260904074536 | 0 | 0.0 | 0.0 | 0.00 | 0.01 | 0.00 | 1013.0 | ||
| 20260904073037 | 0 | 0.0 | 0.0 | 0.00 | 0.01 | 0.00 | 1013.0 | ||
| 20260904071535 | 0 | 0.0 | 0.0 | 0.00 | 0.01 | 0.00 | 1013.0 | ||
| 20260904070039 | 0 | 0.0 | 0.0 | 0.00 | 0.01 | 0.00 | 1013.1 | ||
| 20260904064537 | 80 | 122 | 0.0 | 0.0 | 0.00 | 0.01 | 0.00 | 81 | 1013.1 |
| 20260904063037 | 81 | 120 | 0.0 | 0.0 | 0.00 | 0.01 | 0.00 | 81 | 1013.1 |
| 20260904061532 | 81 | 120 | 0.0 | 0.0 | 0.00 | 0.01 | 0.00 | 81 | 1013.1 |
| 20260904060018 | 81 | 120 | 0.0 | 0.0 | 0.00 | 0.01 | 0.00 | 81 | 1013.1 |
| 20260904054518 | 81 | 120 | 0.0 | 0.0 | 0.00 | 0.01 | 0.00 | 81 | 1013.3 |
| 20260904053027 | 81 | 120 | 0.0 | 0.0 | 0.00 | 0.01 | 0.00 | 81 | 1013.3 |
| 20260904051552 | 81 | 120 | 0.0 | 0.0 | 0.00 | 0.01 | 0.00 | 80 | 1013.3 |
| 20260904050031 | 81 | 101 | 0.0 | 0.0 | 0.00 | 0.01 | 0.00 | 80 | 1013.4 |
| 20260904044516 | 81 | 101 | 0.0 | 0.0 | 0.00 | 0.01 | 0.01 | 80 | 1013.3 |
| 20260904043022 | 81 | 101 | 0.0 | 0.0 | 0.00 | 0.01 | 0.01 | 81 | 1013.4 |
| 20260904041528 | 81 | 101 | 0.0 | 0.0 | 0.00 | 0.01 | 0.01 | 81 | 1013.3 |
| 20260904040035 | 81 | 60 | 0.0 | 0.0 | 0.00 | 0.01 | 0.01 | 81 | 1013.3 |
| 20260904034534 | 81 | 60 | 0.0 | 0.0 | 0.00 | 0.01 | 0.01 | 81 | 1013.3 |
| 20260904033016 | 81 | 60 | 0.0 | 0.0 | 0.00 | 0.01 | 0.01 | 81 | 1013.3 |
| 20260904031523 | 81 | 60 | 0.0 | 0.0 | 0.00 | 0.01 | 0.01 | 81 | 1013.4 |
| 20260904030027 | 81 | 60 | 0.0 | 0.0 | 0.00 | 0.01 | 0.01 | 81 | 1013.4 |
| 20260904024531 | 81 | 60 | 0.0 | 0.0 | 0.00 | 0.01 | 0.01 | 81 | 1013.3 |
| 20260904023012 | 81 | 60 | 0.0 | 0.0 | 0.00 | 0.01 | 0.01 | 81 | 1013.3 |
| 20260904021520 | 81 | 60 | 0.0 | 0.0 | 0.00 | 0.01 | 0.01 | 82 | 1013.1 |
| 20260904020026 | 82 | 60 | 0.0 | 0.0 | 0.00 | 0.01 | 0.01 | 82 | 1012.9 |
| 20260904014531 | 82 | 115 | 0.0 | 0.0 | 0.00 | 0.01 | 0.01 | 82 | 1012.8 |
| 20260904013031 | 82 | 115 | 0.0 | 0.0 | 0.00 | 0.01 | 0.01 | 82 | 1012.5 |
| 20260904011518 | 82 | 115 | 0.0 | 0.0 | 0.00 | 0.01 | 0.01 | 82 | 1012.5 |
| 20260904010037 | 83 | 115 | 0.0 | 0.0 | 0.00 | 0.01 | 0.01 | 81 | 1012.5 |
| 20260904004527 | 83 | 115 | 0.0 | 0.0 | 0.00 | 0.02 | 0.01 | 81 | 1012.4 |
| 20260904003009 | 83 | 115 | 0.0 | 0.0 | 0.00 | 0.02 | 0.01 | 81 | 1012.4 |
| 20260904001513 | 83 | 115 | 0.0 | 0.0 | 0.00 | 0.02 | 0.01 | 81 | 1012.6 |
| 20260904000028 | 83 | 51 | 0.0 | 0.0 | 0.00 | 0.02 | 0.01 | 81 | 1012.7 |
| 20260903234527 | 84 | 62 | 0.0 | 0.0 | 0.00 | 0.02 | 0.01 | 81 | 1012.7 |
| 20260903233027 | 84 | 57 | 0.0 | 0.0 | 0.00 | 0.02 | 0.01 | 81 | 1012.5 |
| 20260903231508 | 84 | 79 | 0.0 | 0.0 | 0.00 | 0.02 | 0.01 | 81 | 1012.4 |
| 20260903230021 | 84 | 64 | 0.0 | 0.0 | 0.00 | 0.02 | 0.01 | 81 | 1012.3 |
| 20260903224519 | 83 | 257 | 0.0 | 0.0 | 0.00 | 0.02 | 0.01 | 80 | 1012.7 |
| 20260903223033 | 82 | 257 | 0.0 | 0.0 | 0.00 | 0.02 | 0.01 | 79 | 1012.9 |
| 20260903221530 | 82 | 257 | 0.0 | 0.0 | 0.00 | 0.02 | 0.01 | 78 | 1012.9 |
| 20260903220010 | 82 | 257 | 0.0 | 0.0 | 0.00 | 0.02 | 0.01 | 78 | 1013.1 |
| 20260903214520 | 82 | 281 | 0.0 | 0.0 | 0.00 | 0.02 | 0.01 | 77 | 1013.1 |
| 20260903213024 | 84 | 149 | 0.0 | 0.0 | 0.00 | 0.02 | 0.01 | 75 | 1013.7 |
| 20260903211526 | 84 | 300 | 0.0 | 0.0 | 0.00 | 0.02 | 0.01 | 79 | 1013.6 |
| 20260903210033 | 85 | 37 | 0.0 | 0.0 | 0.00 | 0.02 | 0.01 | 81 | 1013.8 |
| 20260903204508 | 84 | 59 | 0.0 | 0.0 | 0.00 | 0.02 | 0.01 | 80 | 1013.7 |
| 20260903203019 | 83 | 63 | 0.0 | 0.0 | 0.00 | 0.02 | 0.01 | 79 | 1013.6 |
| 20260903201524 | 83 | 46 | 0.0 | 0.0 | 0.00 | 0.02 | 0.01 | 78 | 1013.1 |
| 20260903200029 | 84 | 63 | 0.0 | 0.0 | 0.00 | 0.02 | 0.01 | 75 | 1013.3 |
| 20260903194531 | 85 | 18 | 0.0 | 0.0 | 0.00 | 0.02 | 0.01 | 73 | 1013.6 |
| 20260903193012 | 91 | 58 | 0.0 | 10.0 | 0.00 | 0.02 | 0.01 | 66 | 1013.9 |
| 20260903191529 | 93 | 313 | 0.0 | 0.0 | 0.00 | 0.02 | 0.01 | 66 | 1013.2 |
| 20260903190027 | 92 | 61 | 0.0 | 0.0 | 0.00 | 0.02 | 0.01 | 68 | 1013.5 |
| 20260903184530 | 94 | 98 | 0.0 | 0.0 | 0.00 | 0.02 | 0.01 | 61 | 1013.7 |
| 20260903183033 | 92 | 59 | 0.0 | 0.0 | 0.00 | 0.02 | 0.01 | 62 | 1013.9 |
| 20260903181513 | 92 | 239 | 0.0 | 0.0 | 0.00 | 0.02 | 0.01 | 59 | 1013.9 |
| 20260903180033 | 91 | 111 | 0.0 | 0.0 | 0.00 | 0.02 | 0.01 | 63 | 1014.3 |
| 20260903174528 | 91 | 105 | 0.0 | 0.0 | 0.00 | 0.02 | 0.01 | 68 | 1014.5 |
| 20260903173032 | 91 | 113 | 0.0 | 3.0 | 0.00 | 0.02 | 0.01 | 69 | 1014.5 |
| 20260903171534 | 90 | 103 | 0.0 | 0.0 | 0.00 | 0.02 | 0.01 | 72 | 1014.6 |
| 20260903170021 | 89 | 166 | 0.0 | 0.0 | 0.00 | 0.02 | 0.01 | 75 | 1014.9 |
| 20260903164530 | 87 | 60 | 0.0 | 0.0 | 0.00 | 0.02 | 0.01 | 76 | 1015.1 |
| 20260903163027 | 86 | 60 | 0.0 | 0.0 | 0.00 | 0.02 | 0.01 | 78 | 1014.9 |
| 20260903161534 | 85 | 64 | 0.0 | 0.0 | 0.00 | 0.02 | 0.01 | 79 | 1014.7 |
| 20260903160055 | 84 | 64 | 0.0 | 0.0 | 0.00 | 0.02 | 0.01 | 80 | 1014.7 |
| 20260903154531 | 82 | 16 | 0.0 | 0.0 | 0.00 | 0.02 | 0.01 | 81 | 1014.7 |
| 20260903153028 | 81 | 16 | 0.0 | 0.0 | 0.00 | 0.02 | 0.01 | 82 | 1014.8 |
| 20260903151530 | 81 | 16 | 0.0 | 0.0 | 0.00 | 0.02 | 0.01 | 82 | 1014.7 |
| 20260903150022 | 81 | 14 | 0.0 | 0.0 | 0.01 | 0.02 | 0.01 | 82 | 1014.8 |
| 20260903144533 | 81 | 23 | 0.0 | 0.0 | 0.01 | 0.02 | 0.01 | 82 | 1014.5 |
| 20260903143024 | 80 | 23 | 0.0 | 0.0 | 0.01 | 0.02 | 0.01 | 81 | 1014.7 |
| 20260903141527 | 80 | 23 | 0.0 | 0.0 | 0.01 | 0.02 | 0.01 | 81 | 1014.9 |